Belen, NM

8:03 AM MDT on July 24, 2016 (GMT -0600)
Belen

Weather History for KE80 - May, 2014

Change the Weather History Date:

Monday, May 5, 2014

  Actual Average (KABQ) Record (KABQ)
Temperature  
Mean Temperature 68 °F 62 °F  
Max Temperature 86 °F 75 °F 92 °F (1947)
Min Temperature 49 °F 49 °F 33 °F (1915)
Degree Days  
Heating Degree Days 0 4  
Month to date heating degree days 22  
Since 1 July heating degree days 4126  
Cooling Degree Days 2 1  
Month to date cooling degree days 5  
Year to date cooling degree days 12  
Growing Degree Days 18 (Base 50)    
Moisture  
Dew Point 16 °F    
Average Humidity 14    
Maximum Humidity 20    
Minimum Humidity 8    
Precipitation  
Precipitation 0.00 in 0.02 in 0.47 in (1969)
Month to date precipitation 0.08  
Year to date precipitation 2.12  
Snow  
Snow 0.00 in - - ()
Month to date snowfall  
Since 1 July snowfall  
Snow Depth -    
Sea Level Pressure  
Sea Level Pressure 30.02 in    
Wind  
Wind Speed 8 mph (WSW)    
Max Wind Speed 20 mph    
Max Gust Speed 31 mph    
Visibility 10 miles    
Events      
T = Trace of Precipitation, MM = Missing Value Source: NWS Daily Summary

Daily Weather History Graph

Daily Weather History Graph

Search for Another Location

Airport or City:

Trip Planner

Search our weather history database for the weather conditions in past years. The results will help you decide how hot, cold, wet, or windy it might be!

Date:

Astronomy

May. 05, 2014 Rise Set
Actual Time 6:13 AM MDT 7:55 PM MDT
Civil Twilight 5:45 AM MDT 8:22 PM MDT
Nautical Twilight 5:13 AM MDT 8:55 PM MDT
Astronomical Twilight 4:38 AM MDT 9:30 PM MDT
Moon 11:34 AM MDT (5/5) 12:41 AM MDT (5/5)
Length of Visible Light 14h 36m
Length of Day
13h 42m
Waxing Crescent, 37% of the Moon is Illuminated
May 5
Waxing Crescent
May 6
First Quarter
May 14
Full
May 21
Last Quarter
May 28
New

Hourly Weather History & Observations

Time (MDT) Temp. Dew Point Humidity Pressure Visibility Wind Dir Wind Speed Gust Speed Precip Events Conditions
12:15 AM 60.6 °F 11.1 °F 14% 30.08 in 10.0 mi West 9.2 mph - N/A   Clear
12:35 AM 56.3 °F 9.9 °F 16% 30.08 in 10.0 mi West 10.4 mph - N/A   Clear
12:55 AM 57.4 °F 10.6 °F 16% 30.08 in 10.0 mi West 10.4 mph - N/A   Clear
1:15 AM 60.8 °F 12.2 °F 15% 30.09 in 10.0 mi West 10.4 mph - N/A   Clear
1:35 AM 59.9 °F 12.2 °F 15% 30.09 in 10.0 mi West 8.1 mph - N/A   Clear
1:55 AM 59.7 °F 12.2 °F 15% 30.09 in 10.0 mi West 8.1 mph - N/A   Clear
2:15 AM 55.9 °F 11.1 °F 17% 30.09 in 10.0 mi WSW 6.9 mph - N/A   Clear
2:35 AM 56.3 °F 11.1 °F 17% 30.09 in 10.0 mi WSW 8.1 mph - N/A   Clear
2:55 AM 53.4 °F 10.6 °F 18% 30.09 in 10.0 mi WSW 8.1 mph - N/A   Clear
3:15 AM 55.8 °F 11.3 °F 17% 30.09 in 10.0 mi Calm Calm - N/A   Clear
3:35 AM 60.4 °F 12.9 °F 16% 30.10 in 10.0 mi Calm Calm - N/A   Clear
3:55 AM 56.1 °F 11.7 °F 17% 30.10 in 10.0 mi WSW 4.6 mph - N/A   Clear
4:15 AM 51.8 °F 10.2 °F 19% 30.10 in 10.0 mi SW 4.6 mph - N/A   Clear
4:35 AM 49.8 °F 9.7 °F 20% 30.10 in 10.0 mi Calm Calm - N/A   Clear
4:55 AM 54.3 °F 11.5 °F 18% 30.10 in 10.0 mi Calm Calm - N/A   Clear
5:15 AM 56.3 °F 12.2 °F 17% 30.11 in 10.0 mi Calm Calm - N/A   Clear
5:35 AM 54.5 °F 11.1 °F 18% 30.11 in 10.0 mi SSW 3.5 mph - N/A   Clear
5:55 AM 52.0 °F 10.8 °F 19% 30.11 in 10.0 mi SSW 10.4 mph - N/A   Clear
6:15 AM 52.5 °F 11.1 °F 19% 30.12 in 10.0 mi SW 8.1 mph - N/A   Clear
6:35 AM 51.1 °F 11.1 °F 20% 30.12 in 10.0 mi SW 9.2 mph - N/A   Clear
6:55 AM 54.5 °F 12.2 °F 19% 30.12 in 10.0 mi SW 4.6 mph - N/A   Clear
7:15 AM 53.6 °F 11.7 °F 19% 30.12 in 10.0 mi Calm Calm - N/A   Clear
7:35 AM 57.0 °F 12.7 °F 17% 30.13 in 10.0 mi Calm Calm - N/A   Clear
7:55 AM 59.9 °F 14.0 °F 17% 30.14 in 10.0 mi Calm Calm - N/A   Clear
8:15 AM 63.3 °F 15.1 °F 15% 30.14 in 10.0 mi WSW 4.6 mph - N/A   Clear
8:35 AM 64.9 °F 15.8 °F 15% 30.14 in 10.0 mi West 4.6 mph - N/A   Clear
8:55 AM 67.5 °F 16.7 °F 14% 30.13 in 10.0 mi WNW 3.5 mph - N/A   Clear
9:15 AM 68.0 °F 17.4 °F 14% 30.12 in 10.0 mi NNE 4.6 mph - N/A   Clear
9:35 AM 66.7 °F 17.8 °F 15% 30.12 in 10.0 mi East 4.6 mph - N/A   Clear
9:55 AM 68.0 °F 18.9 °F 15% 30.12 in 10.0 mi ESE 9.2 mph - N/A   Clear
10:15 AM 69.1 °F 18.3 °F 14% 30.11 in 10.0 mi ENE 6.9 mph - N/A   Clear
10:35 AM 71.4 °F 19.4 °F 14% 30.11 in 10.0 mi East 8.1 mph - N/A   Clear
10:55 AM 71.8 °F 20.5 °F 14% 30.11 in 10.0 mi ENE 4.6 mph - N/A   Clear
11:15 AM 73.6 °F 19.2 °F 13% 30.10 in 10.0 mi NNE 4.6 mph - N/A   Clear
11:35 AM 75.6 °F 19.6 °F 12% 30.09 in 10.0 mi Calm Calm - N/A   Clear
12:15 PM 78.6 °F 20.1 °F 11% 30.07 in 10.0 mi WSW 9.2 mph 25.3 mph N/A   Clear
12:35 PM 79.3 °F 20.5 °F 11% 30.05 in 10.0 mi WNW 6.9 mph 16.1 mph N/A   Clear
12:55 PM 80.8 °F 20.8 °F 11% 30.04 in 10.0 mi West 10.4 mph 19.6 mph N/A   Clear
1:15 PM 81.0 °F 19.6 °F 10% 30.04 in 10.0 mi WSW 12.7 mph 19.6 mph N/A   Clear
1:35 PM 81.1 °F 20.1 °F 10% 30.02 in 10.0 mi SW 10.4 mph 21.9 mph N/A   Clear
1:55 PM 81.9 °F 19.9 °F 10% 30.01 in 10.0 mi West 12.7 mph 17.3 mph N/A   Clear
2:15 PM 81.7 °F 20.1 °F 10% 29.99 in 10.0 mi West 4.6 mph - N/A   Clear
2:55 PM 84.7 °F 19.8 °F 9% 29.97 in 10.0 mi SW 11.5 mph 18.4 mph N/A   Clear
3:15 PM 86.0 °F 19.0 °F 8% 29.95 in 10.0 mi WSW 19.6 mph 31.1 mph N/A   Clear
3:35 PM 86.0 °F 18.7 °F 8% 29.93 in 10.0 mi SSW 17.3 mph 24.2 mph N/A   Clear
3:55 PM 83.8 °F 19.9 °F 9% 29.92 in 10.0 mi South 10.4 mph 19.6 mph N/A   Clear
4:15 PM 84.0 °F 21.4 °F 10% 29.91 in 10.0 mi South 8.1 mph 17.3 mph N/A   Clear
4:35 PM 84.6 °F 20.5 °F 9% 29.90 in 10.0 mi South 17.3 mph 24.2 mph N/A   Clear
4:55 PM 85.3 °F 21.0 °F 9% 29.90 in 10.0 mi South 9.2 mph 17.3 mph N/A   Clear
5:15 PM 84.2 °F 19.2 °F 9% 29.89 in 10.0 mi SE 10.4 mph - N/A   Clear
5:35 PM 84.4 °F 19.9 °F 9% 29.88 in 10.0 mi South 11.5 mph 20.7 mph N/A   Clear
5:55 PM 84.2 °F 16.7 °F 8% 29.88 in 10.0 mi SSW 11.5 mph - N/A   Clear
6:15 PM 82.2 °F 16.3 °F 9% 29.87 in 10.0 mi WSW 12.7 mph - N/A   Clear
6:35 PM 81.1 °F 16.7 °F 9% 29.87 in 10.0 mi West 10.4 mph - N/A   Clear
6:55 PM 79.0 °F 16.9 °F 10% 29.87 in 10.0 mi WSW 12.7 mph 16.1 mph N/A   Clear
7:15 PM 78.4 °F 18.1 °F 10% 29.87 in 10.0 mi West 11.5 mph 17.3 mph N/A   Clear
7:35 PM 77.9 °F 17.4 °F 10% 29.87 in 10.0 mi WSW 15.0 mph 18.4 mph N/A   Clear
7:55 PM 76.1 °F 17.6 °F 11% 29.87 in 10.0 mi WSW 12.7 mph - N/A   Clear
8:15 PM 73.9 °F 17.6 °F 12% 29.88 in 10.0 mi West 11.5 mph - N/A   Clear
8:35 PM 73.9 °F 17.4 °F 12% 29.88 in 10.0 mi West 10.4 mph 18.4 mph N/A   Clear
8:55 PM 70.3 °F 16.5 °F 13% 29.89 in 10.0 mi West 9.2 mph - N/A   Clear
9:15 PM 67.5 °F 15.4 °F 14% 29.90 in 10.0 mi WSW 9.2 mph - N/A   Clear
9:35 PM 66.7 °F 15.1 °F 14% 29.91 in 10.0 mi WSW 9.2 mph - N/A   Clear
9:55 PM 63.9 °F 14.4 °F 15% 29.92 in 10.0 mi SW 10.4 mph - N/A   Clear
10:15 PM 62.4 °F 13.8 °F 15% 29.93 in 10.0 mi SW 9.2 mph - N/A   Clear
10:35 PM 61.5 °F 13.5 °F 15% 29.94 in 10.0 mi WSW 10.4 mph - N/A   Clear
10:55 PM 60.4 °F 13.3 °F 16% 29.94 in 10.0 mi West 10.4 mph - N/A   Clear
11:15 PM 61.7 °F 14.0 °F 16% 29.94 in 10.0 mi West 9.2 mph - N/A   Clear
11:35 PM 58.6 °F 13.3 °F 17% 29.94 in 10.0 mi West 8.1 mph - N/A   Clear
11:55 PM 58.3 °F 13.1 °F 17% 29.94 in 10.0 mi West 6.9 mph - N/A   Clear